Location: ??????????
(41.2581°N, 22.8006°E)
Time: 04:35:21
(UTC+00:00)

GEOS 3 Rocket - Pass Details

Date: 15 March 2026
Orbit: 767 x 846 km, 115.0° (Epoch: 17 April)

Event Time Altitude Azimuth Distance (km) Brightness Sun altitude
Rises 01:29:28 0° 46° (NE) 3,410 7.8 -35.1°
Reaches altitude 10° 01:32:09 10° 58° (ENE) 2,468 6.9 -34.7°
Maximum altitude 01:36:42 27° 116° (ESE) 1,544 5.2 -34.0°
Enters shadow 01:36:42 27° 116° (ESE) 1,544 5.2 -34.0°
